Location: *
(41.7492°S, 135.4150°W)
Time: 22:38:22
(UTC+00:00)

METEOR M2 - Pass Details

Date: 02 July 2022
Orbit: 818 x 827 km, 98.4° (Epoch: 17 August)

Event Time Altitude Azimuth Distance (km) Brightness Sun altitude
Exits shadow 02:30:22 11° 103° (ESE) 2,404 ? -8.9°
Maximum altitude 02:31:20 11° 93° (E) 2,370 ? -9.1°
Drops below altitude 10° 02:32:43 10° 78° (ENE) 2,432 ? -9.3°
Sets 02:37:13 0° 42° (NE) 3,353 ? -10.1°
